OBJECT C, 58822

Orbit data source: Space-Track

You're viewing an Uncataloged Satellite

Recently launched and/or uncataloged satellites may have evolving metadata. Metadata may include but not limited to: Owner, Maufacturer, Bus, Motor, and Mission.

OBJECT C, 58822 is a Chinese satellite in SSO that was launched on Tue, 23 Jan 2024 UTC via a LIJIAN-1 launch vehicle from the Jiuquan Satellite Launch Center, China (JSC). Unknown objects in Earth's orbit typically refer to objects detected orbiting the Earth but have not yet been identified or cataloged. These objects could be anything from previously untracked satellites, spent rocket stages, debris from satellite collisions, or even natural meteoroids temporarily captured by Earth's gravity.

Loading next visibility...
Identifier
58822, 2024-016C
Orbit
SSO
Country
Flag of CNCN / PRC
Related business
None
Manufacturer
Unknown
Mission
Operational Commercial Imaging
Bus & Motor
Unknown
Mass
Unknown
Launch date (UTC)
2024-01-23 (2 years ago)
Launch vehicle
LIJIAN-1
Launch site
Jiuquan Satellite Launch Center, China (JSC)
Object type
Unknown
Shape & HBR
Box + 3 Pan, 3.0 m
Radar Cross Section
3.533 m², Large (>1 m²)

Expand to show TLE details & history
Last TLE update: 1 day ago

TLE from 1 day ago
0 OBJECT C
1 58822U 24016C   26172.52408380  .00006033  00000-0  24229-3 0  9990
2 58822  97.4364 253.0898 0010601 174.6696 185.4657 15.25277517133793
Epoch: 2026-06-21T12:34Z
TLE epoch observation values (Epoch: 2026-06-21T12:34:40.840Z)
Latitude
0.00002°
Longitude
154.69651°
Altitude
500.298 km
Speed
7.61 km/s
True Right ascension
16h 52m 21s
True Declination
0° 00' 00"
Sunlit
Object was in full shadow at epoch
Visualization orbit readout
Latitude
Unknown
Longitude
Unknown
Altitude
Unknown
Speed
Unknown
Apparent Right ascension
Unknown
Apparent Declination
Unknown
Sunlit
N/A
Visualization observer readout
Local Sidereal Time
23:07:36
Azimuth
Unknown
Elevation
Unknown
Doppler factor
Unknown
Orbital elements
Apogee altitude
494.19 km
Perigee altitude
479.635 km
Semi-major axis
6,865.049 km
Eccentricity
0.00106
Inclination
97.4364°
RAAN
253.0898°
Arg. of periapsis
174.6696°
True anomaly
185.45414°
Mean anomaly
185.4657°
Eccentric anomaly
185.45992°
Mean motion
3.81573 °/min
Orbital period
94.35 mins
BSTAR
0.00024229
Loading maneuver chart data...
Computing Atmospheric mass density...
Loading historical data...
Loading historical data...
Loading historical data...
Loading historical data...
Loading historical data...
Loading historical data...
Loading historical data...
Other satellites on launch #16 in the year 2024 (2024-01-23 UTC)

Documentation

Showing up to 5 results
|